| time (UTC) | temp C | wind direction | speed KPH | gust KPH | rain 1hr cm | rain 24hr cm | rain mn cm | humidity % | barometer mb |
| 20260905154410 | 13 | 67 | 0.0 | 0.0 | 0.00 | 0.00 | 0.00 | 92 | 1028.5 |
| 20260905153509 | 13 | 67 | 0.0 | 1.6 | 0.00 | 0.00 | 0.00 | 93 | 1028.7 |
| 20260905152513 | 12 | 67 | 0.0 | 1.6 | 0.00 | 0.00 | 0.00 | 94 | 1028.8 |
| 20260905151611 | 12 | 67 | 0.0 | 1.6 | 0.00 | 0.00 | 0.00 | 94 | 1028.7 |
| 20260905150611 | 12 | 67 | 0.0 | 1.6 | 0.00 | 0.00 | 0.00 | 94 | 1028.7 |
| 20260905145612 | 12 | 67 | 1.6 | 3.2 | 0.00 | 0.00 | 0.00 | 95 | 1028.7 |
| 20260905144610 | 12 | 67 | 1.6 | 3.2 | 0.00 | 0.00 | 0.00 | 95 | 1028.6 |
| 20260905143611 | 12 | 67 | 1.6 | 3.2 | 0.00 | 0.00 | 0.00 | 94 | 1028.6 |
| 20260905142709 | 12 | 67 | 0.0 | 0.0 | 0.00 | 0.00 | 0.00 | 95 | 1028.5 |
| 20260905141711 | 12 | 67 | 1.6 | 1.6 | 0.00 | 0.00 | 0.00 | 94 | 1028.6 |
| 20260905140711 | 12 | 67 | 1.6 | 3.2 | 0.00 | 0.00 | 0.00 | 94 | 1028.6 |
| 20260905135712 | 12 | 67 | 0.0 | 1.6 | 0.00 | 0.00 | 0.00 | 93 | 1028.4 |
| 20260905134712 | 12 | 67 | 0.0 | 0.0 | 0.00 | 0.00 | 0.00 | 93 | 1028.3 |
| 20260905132810 | 12 | 67 | 1.6 | 1.6 | 0.00 | 0.00 | 0.00 | 94 | 1028.1 |
| 20260905131813 | 12 | 67 | 3.2 | 3.2 | 0.00 | 0.00 | 0.00 | 94 | 1028.1 |
| 20260905130909 | 12 | 67 | 3.2 | 3.2 | 0.00 | 0.00 | 0.00 | 93 | 1028.1 |
| 20260905125912 | 12 | 67 | 3.2 | 3.2 | 0.00 | 0.00 | 0.00 | 93 | 1028.1 |
| 20260905123913 | 12 | 67 | 0.0 | 0.0 | 0.00 | 0.00 | 0.00 | 94 | 1028.0 |
| 20260905121910 | 12 | 67 | 0.0 | 0.0 | 0.00 | 0.00 | 0.00 | 93 | 1028.2 |
| 20260905121810 | 12 | 67 | 0.0 | 0.0 | 0.00 | 0.00 | 0.00 | 92 | 1028.1 |
| 20260905120812 | 12 | 67 | 0.0 | 1.6 | 0.00 | 0.00 | 0.00 | 92 | 1028.0 |
| 20260905115813 | 12 | 67 | 1.6 | 3.2 | 0.00 | 0.00 | 0.00 | 93 | 1028.0 |
| 20260905112811 | 12 | 67 | 1.6 | 3.2 | 0.00 | 0.00 | 0.00 | 94 | 1027.8 |
| 20260905110909 | 12 | 67 | 1.6 | 1.6 | 0.00 | 0.00 | 0.00 | 95 | 1027.8 |
| 20260905104909 | 12 | 67 | 0.0 | 0.0 | 0.00 | 0.00 | 0.00 | 94 | 1027.7 |
| 20260905103912 | 12 | 67 | 0.0 | 0.0 | 0.00 | 0.00 | 0.00 | 94 | 1027.8 |
| 20260905103814 | 12 | 67 | 0.0 | 0.0 | 0.00 | 0.00 | 0.00 | 95 | 1027.8 |
| 20260905102911 | 12 | 67 | 0.0 | 0.0 | 0.00 | 0.00 | 0.00 | 95 | 1027.6 |
| 20260905102009 | 12 | 67 | 0.0 | 0.0 | 0.00 | 0.00 | 0.00 | 93 | 1027.7 |
| 20260905101010 | 12 | 67 | 0.0 | 0.0 | 0.00 | 0.00 | 0.00 | 93 | 1027.8 |
| 20260905100911 | 12 | 67 | 0.0 | 0.0 | 0.00 | 0.00 | 0.00 | 94 | 1027.8 |
| 20260905095910 | 12 | 67 | 0.0 | 1.6 | 0.00 | 0.00 | 0.00 | 93 | 1027.7 |
| 20260905094910 | 12 | 360 | 0.0 | 0.0 | 0.00 | 0.00 | 0.00 | 93 | 1027.8 |
| 20260905093910 | 12 | 360 | 0.0 | 0.0 | 0.00 | 0.00 | 0.00 | 93 | 1027.8 |
| 20260905092911 | 12 | 360 | 0.0 | 0.0 | 0.00 | 0.00 | 0.00 | 94 | 1027.7 |
| 20260905091911 | 12 | 360 | 0.0 | 0.0 | 0.00 | 0.00 | 0.00 | 93 | 1027.8 |
| 20260905091810 | 12 | 360 | 0.0 | 0.0 | 0.00 | 0.00 | 0.00 | 93 | 1027.9 |
| 20260905085811 | 12 | 360 | 0.0 | 0.0 | 0.00 | 0.00 | 0.00 | 94 | 1027.7 |
| 20260905084812 | 12 | 360 | 0.0 | 0.0 | 0.00 | 0.00 | 0.00 | 94 | 1027.7 |
| 20260905083811 | 12 | 360 | 0.0 | 0.0 | 0.00 | 0.00 | 0.00 | 93 | 1027.6 |
| 20260905083709 | 12 | 360 | 0.0 | 0.0 | 0.00 | 0.00 | 0.00 | 93 | 1027.6 |
| 20260905082711 | 12 | 315 | 0.0 | 0.0 | 0.00 | 0.00 | 0.00 | 93 | 1027.6 |
| 20260905081714 | 12 | 315 | 0.0 | 0.0 | 0.00 | 0.00 | 0.00 | 93 | 1027.5 |
| 20260905080712 | 12 | 315 | 0.0 | 0.0 | 0.00 | 0.00 | 0.00 | 94 | 1027.5 |
| 20260905075709 | 12 | 315 | 0.0 | 3.2 | 0.00 | 0.00 | 0.00 | 93 | 1027.5 |
| 20260905074710 | 12 | 315 | 0.0 | 0.0 | 0.00 | 0.00 | 0.00 | 93 | 1027.5 |
| 20260905072710 | 12 | 315 | 0.0 | 0.0 | 0.00 | 0.00 | 0.00 | 91 | 1027.3 |
| 20260905071710 | 13 | 315 | 0.0 | 0.0 | 0.00 | 0.00 | 0.00 | 92 | 1027.3 |
| 20260905070809 | 13 | 315 | 0.0 | 1.6 | 0.00 | 0.00 | 0.00 | 91 | 1027.2 |
| 20260905065822 | 13 | 315 | 0.0 | 1.6 | 0.00 | 0.00 | 0.00 | 91 | 1027.1 |
| 20260905063819 | 13 | 135 | 1.6 | 3.2 | 0.00 | 0.00 | 0.00 | 93 | 1027.0 |
| 20260905062820 | 13 | 143 | 4.8 | 4.8 | 0.00 | 0.00 | 0.00 | 93 | 1027.0 |
| 20260905060820 | 12 | 157 | 1.6 | 1.6 | 0.00 | 0.00 | 0.00 | 92 | 1026.9 |
| 20260905055919 | 13 | 157 | 0.0 | 0.0 | 0.00 | 0.00 | 0.00 | 93 | 1026.9 |
| 20260905055018 | 13 | 157 | 1.6 | 3.2 | 0.00 | 0.00 | 0.00 | 93 | 1026.8 |
| 20260905054020 | 13 | 157 | 4.8 | 4.8 | 0.00 | 0.00 | 0.00 | 91 | 1026.8 |
| 20260905053118 | 13 | 157 | 0.0 | 1.6 | 0.00 | 0.00 | 0.00 | 91 | 1026.7 |
| 20260905052119 | 13 | 157 | 0.0 | 0.0 | 0.00 | 0.00 | 0.00 | 90 | 1026.6 |
| 20260905050119 | 13 | 180 | 0.0 | 0.0 | 0.00 | 0.00 | 0.00 | 90 | 1026.7 |
| 20260905045119 | 13 | 180 | 0.0 | 1.6 | 0.00 | 0.00 | 0.00 | 91 | 1026.7 |
| 20260905044122 | 14 | 225 | 0.0 | 0.0 | 0.00 | 0.00 | 0.00 | 90 | 1026.6 |
| 20260905042220 | 14 | 270 | 0.0 | 1.6 | 0.00 | 0.00 | 0.00 | 88 | 1026.4 |
| 20260905041219 | 14 | 292 | 3.2 | 6.4 | 0.00 | 0.00 | 0.00 | 87 | 1026.2 |
| 20260905040219 | 14 | 225 | 3.2 | 3.2 | 0.00 | 0.00 | 0.00 | 87 | 1026.1 |
| 20260905035220 | 15 | 270 | 0.0 | 0.0 | 0.00 | 0.00 | 0.00 | 85 | 1026.2 |
| 20260905033335 | 15 | 270 | 4.8 | 6.4 | 0.00 | 0.00 | 0.00 | 84 | 1026.0 |
| 20260905031418 | 15 | 225 | 3.2 | 4.8 | 0.00 | 0.00 | 0.00 | 83 | 1025.8 |
| 20260905030420 | 15 | 225 | 4.8 | 8.0 | 0.00 | 0.00 | 0.00 | 83 | 1025.7 |
| 20260905025518 | 15 | 225 | 4.8 | 6.4 | 0.00 | 0.00 | 0.00 | 85 | 1025.7 |
| 20260905024520 | 15 | 225 | 6.4 | 8.0 | 0.00 | 0.00 | 0.00 | 86 | 1025.7 |
| 20260905023522 | 15 | 225 | 4.8 | 6.4 | 0.00 | 0.00 | 0.00 | 85 | 1025.8 |
| 20260905021522 | 15 | 270 | 1.6 | 3.2 | 0.00 | 0.00 | 0.00 | 85 | 1025.7 |
| 20260905020619 | 15 | 270 | 3.2 | 3.2 | 0.00 | 0.00 | 0.00 | 83 | 1025.6 |
| 20260905014720 | 17 | 270 | 8.0 | 9.7 | 0.00 | 0.00 | 0.00 | 74 | 1025.4 |
| 20260905013719 | 16 | 180 | 0.0 | 0.0 | 0.00 | 0.00 | 0.00 | 74 | 1025.3 |
| 20260905012819 | 16 | 225 | 3.2 | 4.8 | 0.00 | 0.00 | 0.00 | 74 | 1025.4 |
| 20260905011820 | 16 | 225 | 4.8 | 6.4 | 0.00 | 0.00 | 0.00 | 74 | 1025.1 |
| 20260905010819 | 16 | 225 | 6.4 | 8.0 | 0.00 | 0.00 | 0.00 | 74 | 1025.2 |
| 20260905005821 | 16 | 225 | 6.4 | 9.7 | 0.00 | 0.00 | 0.00 | 76 | 1025.2 |
| 20260905004822 | 16 | 235 | 8.0 | 12.9 | 0.00 | 0.00 | 0.00 | 79 | 1025.3 |
| 20260905003820 | 16 | 254 | 8.0 | 11.3 | 0.00 | 0.00 | 0.00 | 79 | 1025.2 |
| 20260905001820 | 16 | 225 | 6.4 | 8.0 | 0.00 | 0.00 | 0.00 | 75 | 1024.9 |
| 20260904235820 | 15 | 243 | 8.0 | 9.7 | 0.00 | 0.00 | 0.00 | 79 | 1024.9 |
| 20260904234820 | 15 | 241 | 6.4 | 9.7 | 0.00 | 0.00 | 0.00 | 77 | 1025.0 |
| 20260904233820 | 15 | 199 | 1.6 | 6.4 | 0.00 | 0.00 | 0.00 | 79 | 1025.0 |
| 20260904232818 | 15 | 206 | 8.0 | 12.9 | 0.00 | 0.00 | 0.00 | 80 | 1025.0 |
| 20260904231818 | 15 | 217 | 8.0 | 11.3 | 0.00 | 0.00 | 0.00 | 82 | 1024.9 |
| 20260904230820 | 15 | 191 | 4.8 | 12.9 | 0.00 | 0.00 | 0.00 | 85 | 1024.8 |
| 20260904225823 | 16 | 190 | 1.6 | 8.0 | 0.00 | 0.00 | 0.00 | 86 | 1024.9 |
| 20260904224820 | 16 | 218 | 3.2 | 8.0 | 0.00 | 0.00 | 0.00 | 86 | 1024.8 |
| 20260904223918 | 16 | 232 | 9.7 | 11.3 | 0.00 | 0.00 | 0.00 | 86 | 1024.8 |
| 20260904223821 | 16 | 236 | 8.0 | 9.7 | 0.00 | 0.00 | 0.00 | 86 | 1024.6 |
| 20260904222919 | 16 | 225 | 4.8 | 6.4 | 0.00 | 0.00 | 0.00 | 84 | 1024.6 |
| 20260904221921 | 16 | 204 | 3.2 | 4.8 | 0.00 | 0.00 | 0.00 | 83 | 1024.4 |
| 20260904220920 | 16 | 202 | 0.0 | 0.0 | 0.00 | 0.00 | 0.00 | 83 | 1024.2 |
| 20260904220822 | 16 | 202 | 0.0 | 3.2 | 0.00 | 0.00 | 0.00 | 83 | 1024.3 |
| 20260904215821 | 16 | 180 | 0.0 | 0.0 | 0.00 | 0.00 | 0.00 | 83 | 1024.2 |
| 20260904214818 | 16 | 201 | 4.8 | 6.4 | 0.00 | 0.00 | 0.00 | 86 | 1024.2 |
| 20260904213819 | 16 | 202 | 3.2 | 4.8 | 0.00 | 0.00 | 0.00 | 88 | 1024.3 |
| 20260904210918 | 15 | 225 | 6.4 | 8.0 | 0.00 | 0.00 | 0.00 | 87 | 1024.1 |
| 20260904203919 | 16 | 180 | 1.6 | 3.2 | 0.00 | 0.00 | 0.00 | 76 | 1023.9 |
| 20260904202921 | 17 | 225 | 4.8 | 6.4 | 0.00 | 0.00 | 0.00 | 73 | 1023.8 |
| 20260904201020 | 17 | 292 | 4.8 | 6.4 | 0.00 | 0.00 | 0.00 | 71 | 1024.0 |
| 20260904200021 | 17 | 45 | 0.0 | 0.0 | 0.00 | 0.00 | 0.00 | 71 | 1024.0 |
| 20260904194121 | 17 | 45 | 0.0 | 1.6 | 0.00 | 0.00 | 0.00 | 71 | 1024.1 |
| 20260904193219 | 17 | 45 | 6.4 | 8.0 | 0.00 | 0.00 | 0.00 | 71 | 1024.3 |
| 20260904192219 | 17 | 24 | 4.8 | 8.0 | 0.00 | 0.00 | 0.00 | 70 | 1024.3 |
| 20260904191220 | 16 | 45 | 3.2 | 4.8 | 0.00 | 0.00 | 0.00 | 73 | 1024.3 |
| 20260904190218 | 16 | 67 | 0.0 | 0.0 | 0.00 | 0.00 | 0.00 | 73 | 1024.4 |
| 20260904185221 | 16 | 45 | 0.0 | 1.6 | 0.00 | 0.00 | 0.00 | 72 | 1024.5 |
| 20260904184219 | 16 | 45 | 6.4 | 8.0 | 0.00 | 0.00 | 0.00 | 74 | 1024.4 |
| 20260904183218 | 16 | 45 | 6.4 | 8.0 | 0.00 | 0.00 | 0.00 | 75 | 1024.4 |
| 20260904182219 | 15 | 45 | 8.0 | 8.0 | 0.00 | 0.00 | 0.00 | 77 | 1024.4 |
| 20260904181247 | 15 | 45 | 8.0 | 9.7 | 0.00 | 0.00 | 0.00 | 77 | 1024.4 |
| 20260904180319 | 15 | 40 | 8.0 | 11.3 | 0.00 | 0.00 | 0.00 | 77 | 1024.3 |
| 20260904174420 | 15 | 45 | 6.4 | 9.7 | 0.00 | 0.00 | 0.00 | 80 | 1024.4 |
| 20260904173419 | 14 | 22 | 3.2 | 4.8 | 0.00 | 0.00 | 0.00 | 81 | 1024.4 |
| 20260904172419 | 14 | 45 | 6.4 | 6.4 | 0.00 | 0.00 | 0.00 | 82 | 1024.3 |
| 20260904171419 | 13 | 45 | 8.0 | 9.7 | 0.00 | 0.00 | 0.00 | 84 | 1024.4 |
| 20260904165421 | 13 | 45 | 9.7 | 14.5 | 0.00 | 0.00 | 0.00 | 85 | 1024.4 |
| 20260904164518 | 13 | 45 | 14.5 | 19.3 | 0.00 | 0.00 | 0.00 | 88 | 1024.3 |
| 20260904164420 | 13 | 40 | 11.3 | 16.1 | 0.00 | 0.00 | 0.00 | 89 | 1024.2 |
| 20260904163420 | 13 | 67 | 0.0 | 0.0 | 0.00 | 0.00 | 0.00 | 89 | 1024.4 |
| 20260904162518 | 13 | 67 | 3.2 | 8.0 | 0.00 | 0.00 | 0.00 | 90 | 1024.4 |
| 20260904161520 | 12 | 45 | 1.6 | 6.4 | 0.00 | 0.00 | 0.00 | 91 | 1024.6 |
| 20260904160619 | 12 | 112 | 0.0 | 0.0 | 0.00 | 0.00 | 0.00 | 91 | 1024.6 |
| 20260904155621 | 12 | 112 | 0.0 | 0.0 | 0.00 | 0.00 | 0.00 | 92 | 1024.5 |